| time (UTC) | temp F | wind direction | speed MPH | gust MPH | rain 1hr in | rain 24hr in | rain mn in | humidity % | barometer mb |
| 20260505053047 | 51 | 0 | 0.0 | 0.0 | 0.00 | 0.00 | 0.00 | 81 | 1016.0 |
| 20260505052532 | 51 | 0 | 0.0 | 0.0 | 0.00 | 0.00 | 0.00 | 81 | 1016.0 |
| 20260505052034 | 52 | 0 | 0.0 | 0.0 | 0.00 | 0.00 | 0.00 | 81 | 1015.9 |
| 20260505051557 | 52 | 0 | 0.0 | 0.0 | 0.00 | 0.00 | 0.00 | 80 | 1015.9 |
| 20260505051033 | 52 | 0 | 0.0 | 0.0 | 0.00 | 0.00 | 0.00 | 80 | 1015.9 |
| 20260505050533 | 52 | 0 | 0.0 | 0.0 | 0.00 | 0.00 | 0.00 | 80 | 1015.9 |
| 20260505041547 | 53 | 0 | 0.0 | 0.0 | 0.00 | 0.00 | 0.00 | 78 | 1016.1 |
| 20260505041033 | 53 | 0 | 0.0 | 0.0 | 0.00 | 0.00 | 0.00 | 78 | 1016.0 |
| 20260505040533 | 53 | 0 | 0.0 | 0.0 | 0.00 | 0.00 | 0.00 | 78 | 1016.0 |
| 20260505040047 | 53 | 0 | 0.0 | 0.0 | 0.00 | 0.00 | 0.00 | 78 | 1015.9 |
| 20260505035534 | 54 | 0 | 0.0 | 0.0 | 0.00 | 0.00 | 0.00 | 78 | 1016.0 |
| 20260505035032 | 54 | 0 | 0.0 | 0.0 | 0.00 | 0.00 | 0.00 | 78 | 1016.0 |
| 20260505034546 | 54 | 0 | 0.0 | 0.0 | 0.00 | 0.00 | 0.00 | 78 | 1016.0 |
| 20260505034033 | 54 | 0 | 0.0 | 0.0 | 0.00 | 0.00 | 0.00 | 77 | 1016.1 |
| 20260505033533 | 54 | 0 | 0.0 | 0.0 | 0.00 | 0.00 | 0.00 | 77 | 1015.9 |
| 20260505033045 | 54 | 0 | 0.0 | 0.0 | 0.00 | 0.00 | 0.00 | 76 | 1016.1 |
| 20260505032533 | 55 | 0 | 0.0 | 0.0 | 0.00 | 0.00 | 0.00 | 77 | 1016.1 |
| 20260505032036 | 55 | 0 | 0.0 | 0.0 | 0.00 | 0.00 | 0.00 | 77 | 1016.1 |
| 20260505031552 | 55 | 0 | 0.0 | 0.0 | 0.00 | 0.00 | 0.00 | 76 | 1016.0 |
| 20260505031033 | 55 | 0 | 0.0 | 2.0 | 0.00 | 0.00 | 0.00 | 76 | 1016.2 |
| 20260505030533 | 55 | 0 | 0.0 | 2.0 | 0.00 | 0.00 | 0.00 | 75 | 1016.2 |
| 20260505030044 | 56 | 0 | 0.0 | 2.0 | 0.00 | 0.00 | 0.00 | 75 | 1016.2 |
| 20260505025532 | 56 | 338 | 0.0 | 1.0 | 0.00 | 0.00 | 0.00 | 74 | 1016.2 |
| 20260505025033 | 56 | 0 | 0.0 | 0.0 | 0.00 | 0.00 | 0.00 | 74 | 1016.2 |
| 20260505024549 | 56 | 0 | 0.0 | 0.0 | 0.00 | 0.00 | 0.00 | 74 | 1016.2 |
| 20260505024035 | 56 | 0 | 0.0 | 0.0 | 0.00 | 0.00 | 0.00 | 74 | 1016.1 |
| 20260505023536 | 57 | 0 | 0.0 | 0.0 | 0.00 | 0.00 | 0.00 | 73 | 1016.1 |
| 20260505023051 | 57 | 0 | 0.0 | 0.0 | 0.00 | 0.00 | 0.00 | 73 | 1016.1 |
| 20260505022533 | 57 | 0 | 0.0 | 0.0 | 0.00 | 0.00 | 0.00 | 72 | 1016.0 |
| 20260505022032 | 58 | 0 | 0.0 | 0.0 | 0.00 | 0.00 | 0.00 | 71 | 1015.9 |
| 20260505021545 | 58 | 0 | 0.0 | 0.0 | 0.00 | 0.00 | 0.00 | 71 | 1016.1 |
| 20260505021032 | 58 | 0 | 0.0 | 0.0 | 0.00 | 0.00 | 0.00 | 71 | 1015.9 |
| 20260505020532 | 58 | 0 | 0.0 | 0.0 | 0.00 | 0.00 | 0.00 | 70 | 1015.9 |
| 20260505020043 | 59 | 0 | 0.0 | 1.0 | 0.00 | 0.00 | 0.00 | 70 | 1015.7 |
| 20260505015537 | 59 | 0 | 0.0 | 1.0 | 0.00 | 0.00 | 0.00 | 69 | 1015.7 |
| 20260505015035 | 60 | 0 | 0.0 | 1.0 | 0.00 | 0.00 | 0.00 | 68 | 1015.6 |
| 20260505014542 | 60 | 0 | 0.0 | 2.0 | 0.00 | 0.00 | 0.00 | 67 | 1015.7 |
| 20260505014038 | 61 | 0 | 0.0 | 2.0 | 0.00 | 0.00 | 0.00 | 65 | 1015.6 |
| 20260505013532 | 61 | 0 | 0.0 | 2.0 | 0.00 | 0.00 | 0.00 | 63 | 1015.6 |
| 20260505013101 | 61 | 0 | 0.0 | 1.0 | 0.00 | 0.00 | 0.00 | 64 | 1015.6 |
| 20260505012535 | 62 | 0 | 0.0 | 1.0 | 0.00 | 0.00 | 0.00 | 63 | 1015.6 |
| 20260505012033 | 62 | 0 | 0.0 | 1.0 | 0.00 | 0.00 | 0.00 | 63 | 1015.6 |
| 20260505011547 | 62 | 0 | 0.0 | 1.0 | 0.00 | 0.00 | 0.00 | 64 | 1015.6 |
| 20260505011032 | 62 | 0 | 0.0 | 1.0 | 0.00 | 0.00 | 0.00 | 62 | 1015.5 |
| 20260505010533 | 63 | 0 | 0.0 | 1.0 | 0.00 | 0.00 | 0.00 | 62 | 1015.5 |
| 20260505010055 | 63 | 0 | 0.0 | 1.0 | 0.00 | 0.00 | 0.00 | 62 | 1015.5 |
| 20260505005534 | 64 | 269 | 0.0 | 1.0 | 0.00 | 0.00 | 0.00 | 60 | 1015.4 |
| 20260505005033 | 64 | 0 | 0.0 | 1.0 | 0.00 | 0.00 | 0.00 | 59 | 1015.3 |
| 20260505004545 | 65 | 0 | 0.0 | 1.0 | 0.00 | 0.00 | 0.00 | 58 | 1015.2 |
| 20260505004032 | 65 | 0 | 0.0 | 7.0 | 0.00 | 0.00 | 0.00 | 56 | 1015.2 |
| 20260505003533 | 66 | 0 | 0.0 | 7.0 | 0.00 | 0.00 | 0.00 | 55 | 1015.2 |
| 20260505003042 | 66 | 271 | 1.0 | 7.0 | 0.00 | 0.00 | 0.00 | 53 | 1015.0 |
| 20260505002533 | 66 | 309 | 1.0 | 6.0 | 0.00 | 0.00 | 0.00 | 53 | 1015.0 |
| 20260505002034 | 67 | 287 | 1.0 | 6.0 | 0.00 | 0.00 | 0.00 | 53 | 1015.1 |
| 20260505001547 | 67 | 288 | 1.0 | 8.0 | 0.00 | 0.00 | 0.00 | 52 | 1015.0 |
| 20260505001034 | 67 | 289 | 1.0 | 8.0 | 0.00 | 0.00 | 0.00 | 52 | 1014.8 |
| 20260505000535 | 67 | 241 | 2.0 | 8.0 | 0.00 | 0.00 | 0.00 | 51 | 1014.9 |
| 20260505000057 | 67 | 352 | 2.0 | 8.0 | 0.00 | 0.00 | 0.00 | 52 | 1014.9 |
| 20260504235533 | 68 | 261 | 0.0 | 8.0 | 0.00 | 0.00 | 0.00 | 51 | 1014.8 |
| 20260504235035 | 68 | 265 | 1.0 | 4.0 | 0.00 | 0.00 | 0.00 | 51 | 1014.7 |
| 20260504234544 | 68 | 0 | 1.0 | 4.0 | 0.00 | 0.00 | 0.00 | 51 | 1014.7 |
| 20260504234033 | 68 | 272 | 1.0 | 4.0 | 0.00 | 0.00 | 0.00 | 51 | 1014.7 |
| 20260504233533 | 69 | 283 | 2.0 | 6.0 | 0.00 | 0.00 | 0.00 | 51 | 1014.7 |
| 20260504233047 | 69 | 261 | 1.0 | 6.0 | 0.00 | 0.00 | 0.00 | 51 | 1014.6 |
| 20260504232534 | 69 | 254 | 1.0 | 6.0 | 0.00 | 0.00 | 0.00 | 51 | 1014.6 |
| 20260504232035 | 69 | 261 | 1.0 | 6.0 | 0.00 | 0.00 | 0.00 | 51 | 1014.6 |
| 20260504231546 | 69 | 259 | 2.0 | 7.0 | 0.00 | 0.00 | 0.00 | 50 | 1014.6 |
| 20260504231032 | 69 | 261 | 2.0 | 7.0 | 0.00 | 0.00 | 0.00 | 50 | 1014.6 |
| 20260504230534 | 69 | 262 | 1.0 | 7.0 | 0.00 | 0.00 | 0.00 | 50 | 1014.4 |
| 20260504230040 | 70 | 254 | 0.0 | 9.0 | 0.00 | 0.00 | 0.00 | 50 | 1014.5 |
| 20260504225532 | 70 | 258 | 3.0 | 9.0 | 0.00 | 0.00 | 0.00 | 49 | 1014.4 |
| 20260504225036 | 70 | 290 | 2.0 | 12.0 | 0.00 | 0.00 | 0.00 | 48 | 1014.5 |
| 20260504224545 | 71 | 261 | 2.0 | 12.0 | 0.00 | 0.00 | 0.00 | 48 | 1014.4 |
| 20260504224031 | 71 | 267 | 3.0 | 11.0 | 0.00 | 0.00 | 0.00 | 48 | 1014.5 |
| 20260504223533 | 71 | 271 | 2.0 | 8.0 | 0.00 | 0.00 | 0.00 | 49 | 1014.5 |
| 20260504223054 | 71 | 249 | 2.0 | 8.0 | 0.00 | 0.00 | 0.00 | 48 | 1014.4 |
| 20260504222534 | 71 | 279 | 2.0 | 8.0 | 0.00 | 0.00 | 0.00 | 47 | 1014.4 |
| 20260504222033 | 72 | 0 | 0.0 | 8.0 | 0.00 | 0.00 | 0.00 | 47 | 1014.4 |
| 20260504221544 | 72 | 5 | 2.0 | 8.0 | 0.00 | 0.00 | 0.00 | 47 | 1014.4 |
| 20260504221036 | 72 | 0 | 1.0 | 9.0 | 0.00 | 0.00 | 0.00 | 46 | 1014.4 |
| 20260504220533 | 72 | 286 | 2.0 | 9.0 | 0.00 | 0.00 | 0.00 | 46 | 1014.4 |
| 20260504220045 | 72 | 186 | 1.0 | 7.0 | 0.00 | 0.00 | 0.00 | 47 | 1014.3 |
| 20260504215532 | 72 | 267 | 3.0 | 9.0 | 0.00 | 0.00 | 0.00 | 44 | 1014.2 |
| 20260504215034 | 72 | 280 | 3.0 | 9.0 | 0.00 | 0.00 | 0.00 | 45 | 1014.2 |
| 20260504214555 | 72 | 0 | 1.0 | 6.0 | 0.00 | 0.00 | 0.00 | 44 | 1014.2 |
| 20260504214034 | 72 | 0 | 2.0 | 6.0 | 0.00 | 0.00 | 0.00 | 43 | 1014.2 |
| 20260504213534 | 72 | 258 | 1.0 | 6.0 | 0.00 | 0.00 | 0.00 | 45 | 1014.3 |
| 20260504213055 | 72 | 265 | 3.0 | 6.0 | 0.00 | 0.00 | 0.00 | 42 | 1014.2 |
| 20260504212532 | 72 | 249 | 2.0 | 8.0 | 0.00 | 0.00 | 0.00 | 44 | 1014.3 |
| 20260504212034 | 72 | 254 | 2.0 | 8.0 | 0.00 | 0.00 | 0.00 | 43 | 1014.2 |
| 20260504211551 | 73 | 265 | 3.0 | 8.0 | 0.00 | 0.00 | 0.00 | 43 | 1014.2 |
| 20260504211034 | 73 | 265 | 0.0 | 4.0 | 0.00 | 0.00 | 0.00 | 46 | 1014.2 |
| 20260504210537 | 73 | 265 | 1.0 | 3.0 | 0.00 | 0.00 | 0.00 | 43 | 1014.3 |
| 20260504210047 | 73 | 24 | 0.0 | 4.0 | 0.00 | 0.00 | 0.00 | 41 | 1014.4 |
| 20260504205537 | 73 | 255 | 1.0 | 4.0 | 0.00 | 0.00 | 0.00 | 42 | 1014.4 |
| 20260504205034 | 73 | 265 | 1.0 | 3.0 | 0.00 | 0.00 | 0.00 | 45 | 1014.4 |
| 20260504204543 | 73 | 0 | 1.0 | 5.0 | 0.00 | 0.00 | 0.00 | 41 | 1014.5 |
| 20260504204032 | 73 | 254 | 1.0 | 7.0 | 0.00 | 0.00 | 0.00 | 40 | 1014.5 |
| 20260504203533 | 73 | 256 | 2.0 | 7.0 | 0.00 | 0.00 | 0.00 | 42 | 1014.5 |
| 20260504203042 | 73 | 232 | 2.0 | 6.0 | 0.00 | 0.00 | 0.00 | 40 | 1014.5 |
| 20260504202532 | 72 | 250 | 1.0 | 7.0 | 0.00 | 0.00 | 0.00 | 41 | 1014.5 |
| 20260504202034 | 72 | 252 | 0.0 | 7.0 | 0.00 | 0.00 | 0.00 | 42 | 1014.7 |
| 20260504201600 | 73 | 244 | 2.0 | 7.0 | 0.00 | 0.00 | 0.00 | 42 | 1014.7 |
| 20260504201037 | 73 | 259 | 2.0 | 7.0 | 0.00 | 0.00 | 0.00 | 40 | 1014.8 |
| 20260504200533 | 73 | 254 | 1.0 | 6.0 | 0.00 | 0.00 | 0.00 | 40 | 1014.8 |
| 20260504200048 | 73 | 246 | 1.0 | 6.0 | 0.00 | 0.00 | 0.00 | 38 | 1014.9 |
| 20260504195533 | 73 | 0 | 0.0 | 6.0 | 0.00 | 0.00 | 0.00 | 37 | 1015.0 |
| 20260504195033 | 73 | 0 | 1.0 | 7.0 | 0.00 | 0.00 | 0.00 | 36 | 1015.0 |
| 20260504194548 | 73 | 0 | 2.0 | 7.0 | 0.00 | 0.00 | 0.00 | 37 | 1015.1 |
| 20260504194033 | 73 | 0 | 1.0 | 5.0 | 0.00 | 0.00 | 0.00 | 36 | 1015.1 |
| 20260504193534 | 74 | 300 | 0.0 | 4.0 | 0.00 | 0.00 | 0.00 | 36 | 1015.2 |
| 20260504193046 | 73 | 192 | 0.0 | 5.0 | 0.00 | 0.00 | 0.00 | 37 | 1015.2 |
| 20260504192533 | 73 | 294 | 0.0 | 7.0 | 0.00 | 0.00 | 0.00 | 34 | 1015.4 |
| 20260504192033 | 73 | 263 | 2.0 | 9.0 | 0.00 | 0.00 | 0.00 | 32 | 1015.3 |
| 20260504191559 | 73 | 249 | 3.0 | 9.0 | 0.00 | 0.00 | 0.00 | 34 | 1015.4 |
| 20260504191035 | 73 | 262 | 1.0 | 6.0 | 0.00 | 0.00 | 0.00 | 36 | 1015.4 |
| 20260504190536 | 73 | 55 | 1.0 | 4.0 | 0.00 | 0.00 | 0.00 | 34 | 1015.3 |
| 20260504190110 | 73 | 61 | 0.0 | 4.0 | 0.00 | 0.00 | 0.00 | 41 | 1015.6 |
| 20260504185536 | 73 | 0 | 1.0 | 6.0 | 0.00 | 0.00 | 0.00 | 39 | 1015.7 |
| 20260504185033 | 72 | 0 | 2.0 | 9.0 | 0.00 | 0.00 | 0.00 | 44 | 1015.7 |
| 20260504184602 | 72 | 253 | 2.0 | 9.0 | 0.00 | 0.00 | 0.00 | 41 | 1015.7 |
| 20260504184037 | 72 | 257 | 3.0 | 9.0 | 0.00 | 0.00 | 0.00 | 41 | 1015.6 |
| 20260504183534 | 72 | 252 | 1.0 | 8.0 | 0.00 | 0.00 | 0.00 | 41 | 1015.7 |
| 20260504183050 | 72 | 244 | 3.0 | 8.0 | 0.00 | 0.00 | 0.00 | 44 | 1015.8 |
| 20260504182533 | 72 | 275 | 1.0 | 11.0 | 0.00 | 0.00 | 0.00 | 42 | 1015.9 |
| 20260504182033 | 72 | 251 | 2.0 | 11.0 | 0.00 | 0.00 | 0.00 | 44 | 1016.0 |
| 20260504181556 | 72 | 231 | 1.0 | 9.0 | 0.00 | 0.00 | 0.00 | 46 | 1016.1 |
| 20260504181036 | 72 | 276 | 1.0 | 9.0 | 0.00 | 0.00 | 0.00 | 45 | 1016.1 |
| 20260504180533 | 72 | 284 | 2.0 | 9.0 | 0.00 | 0.00 | 0.00 | 45 | 1016.2 |
| 20260504180055 | 72 | 255 | 1.0 | 7.0 | 0.00 | 0.00 | 0.00 | 45 | 1016.2 |
| 20260504175534 | 71 | 270 | 1.0 | 8.0 | 0.00 | 0.00 | 0.00 | 47 | 1016.3 |
| 20260504175034 | 72 | 285 | 1.0 | 8.0 | 0.00 | 0.00 | 0.00 | 49 | 1016.3 |
| 20260504174546 | 71 | 32 | 2.0 | 8.0 | 0.00 | 0.00 | 0.00 | 48 | 1016.3 |
| 20260504174034 | 71 | 248 | 2.0 | 8.0 | 0.00 | 0.00 | 0.00 | 47 | 1016.3 |
| 20260504173536 | 70 | 0 | 2.0 | 9.0 | 0.00 | 0.00 | 0.00 | 47 | 1016.3 |
| 20260504173045 | 69 | 263 | 2.0 | 9.0 | 0.00 | 0.00 | 0.00 | 47 | 1016.3 |
| 20260504172533 | 70 | 256 | 4.0 | 9.0 | 0.00 | 0.00 | 0.00 | 46 | 1016.4 |
| 20260504172034 | 69 | 255 | 1.0 | 7.0 | 0.00 | 0.00 | 0.00 | 48 | 1016.4 |
| 20260504171547 | 68 | 218 | 1.0 | 11.0 | 0.00 | 0.00 | 0.00 | 48 | 1016.4 |
| 20260504171036 | 68 | 269 | 4.0 | 11.0 | 0.00 | 0.00 | 0.00 | 47 | 1016.5 |
| 20260504170534 | 69 | 255 | 1.0 | 7.0 | 0.00 | 0.00 | 0.00 | 48 | 1016.5 |
| 20260504151035 | 61 | 264 | 1.0 | 5.0 | 0.00 | 0.00 | 0.00 | 58 | 1018.1 |
| 20260504150534 | 60 | 0 | 1.0 | 6.0 | 0.00 | 0.00 | 0.00 | 55 | 1018.3 |
| 20260504141036 | 57 | 0 | 0.0 | 2.0 | 0.00 | 0.00 | 0.00 | 59 | 1018.7 |
| 20260504140534 | 57 | 0 | 0.0 | 2.0 | 0.00 | 0.00 | 0.00 | 60 | 1018.5 |
| 20260504130533 | 49 | 0 | 0.0 | 0.0 | 0.00 | 0.00 | 0.00 | 80 | 1018.6 |
| 20260504120105 | 41 | 0 | 0.0 | 0.0 | 0.00 | 0.00 | 0.00 | 91 | 1018.1 |
| 20260504110534 | 39 | 0 | 0.0 | 0.0 | 0.00 | 0.00 | 0.00 | 90 | 1017.9 |
| 20260504110104 | 39 | 0 | 0.0 | 0.0 | 0.00 | 0.00 | 0.00 | 89 | 1017.9 |
| 20260504100533 | 40 | 0 | 0.0 | 0.0 | 0.00 | 0.00 | 0.00 | 89 | 1017.7 |
| 20260504081544 | 40 | 0 | 0.0 | 0.0 | 0.00 | 0.00 | 0.00 | 87 | 1017.8 |
| 20260504081033 | 40 | 0 | 0.0 | 0.0 | 0.00 | 0.00 | 0.00 | 87 | 1017.6 |
| 20260504080535 | 40 | 0 | 0.0 | 0.0 | 0.00 | 0.00 | 0.00 | 87 | 1017.6 |